Weather History for Winner, SD

Change the Weather History Date:

Sunday, August 4, 2013

  Actual Average Record
Temperature  
Mean Temperature 69 °F 76 °F  
Max Temperature 78 °F 89 °F 91 °F (2011)
Min Temperature 59 °F 64 °F 59 °F (2012)
Degree Days  
Heating Degree Days 0 0  
Month to date heating degree days 0 0  
Since 1 June heating degree days 60 59  
Since 1 July heating degree days 7 5  
Cooling Degree Days 4 11  
Month to date cooling degree days 15 46  
Year to date cooling degree days 474 552  
Since 1 June cooling degree days 435 522  
Growing Degree Days 18 (Base 50)    
Moisture  
Dew Point 61 °F    
Average Humidity 77    
Maximum Humidity 90    
Minimum Humidity 64    
Precipitation  
Precipitation 0.54 in 0.08 in 0.54 in (2013)
Month to date precipitation 1.22 0.31  
Year to date precipitation 14.72 14.99  
Sea Level Pressure  
Sea Level Pressure 30.07 in    
Wind  
Wind Speed 11 mph (SE)    
Max Wind Speed 23 mph    
Max Gust Speed 31 mph    
Visibility 8 miles    
Events Rain , Thunderstorm    
T = Trace of Precipitation, MM = Missing Value Source: NWS Daily Summary

Daily Weather History Graph

Daily Weather History Graph

Search for Another Location

Airport:

Trip Planner

Search our weather history database for the weather conditions in past years. The results will help you decide how hot, cold, wet, or windy it might be!

Date:

Astronomy

Aug. 04, 2013 Rise Set
Actual Time 6:32 AM CDT 8:57 PM CDT
Civil Twilight 6:00 AM CDT 9:29 PM CDT
Nautical Twilight 5:20 AM CDT 10:09 PM CDT
Astronomical Twilight 4:35 AM CDT 10:53 PM CDT
Moon 4:34 AM CDT (8/4) 7:21 PM CDT (8/4)
Length of Visible Light 15h 28m
Length of Day
14h 24m
Waning Crescent, 4% of the Moon is Illuminated
Aug 4
Waning Crescent
Aug 6
New
Aug 14
First Quarter
Aug 20
Full
Aug 28
Last Quarter

Hourly Weather History & Observations

Time (CDT) Temp. Dew Point Humidity Pressure Visibility Wind Dir Wind Speed Gust Speed Precip Events Conditions
12:53 AM 61.0 °F 55.0 °F 81% 30.15 in 10.0 mi ESE 8.1 mph - N/A   Clear
1:53 AM 59.0 °F 55.0 °F 87% 30.14 in 10.0 mi SE 6.9 mph - N/A   Mostly Cloudy
2:53 AM 61.0 °F 57.0 °F 87% 30.13 in 10.0 mi SE 4.6 mph - N/A   Overcast
3:53 AM 63.0 °F 57.0 °F 81% 30.12 in 10.0 mi SSE 9.2 mph - N/A   Overcast
4:53 AM 64.0 °F 55.9 °F 75% 30.11 in 10.0 mi SE 13.8 mph - N/A   Overcast
5:53 AM 62.1 °F 57.9 °F 86% 30.16 in 3.0 mi NNW 5.8 mph - 0.06 in Rain Heavy Rain
6:10 AM 60.8 °F 57.2 °F 88% 30.20 in 2.5 mi NNE 9.2 mph - 0.20 in Rain , Thunderstorm Heavy Thunderstorms and Rain
6:35 AM 59.0 °F 57.2 °F 94% 30.21 in 2.0 mi ENE 10.4 mph - 0.37 in Rain , Thunderstorm Heavy Rain
6:37 AM 59.0 °F 57.2 °F 94% 30.20 in 2.5 mi East 11.5 mph - 0.37 in Rain Heavy Rain
6:43 AM 60.8 °F 57.2 °F 88% 30.20 in 3.0 mi East 11.5 mph - 0.37 in Rain Light Rain
6:53 AM 60.1 °F 57.9 °F 93% 30.17 in 3.0 mi East 11.5 mph - 0.39 in Rain Light Rain
7:25 AM 60.8 °F 57.2 °F 88% 30.19 in 9.0 mi ESE 10.4 mph - 0.04 in Rain , Thunderstorm Light Rain
7:53 AM 60.1 °F 57.9 °F 93% 30.14 in 6.0 mi SE 19.6 mph - 0.07 in Rain , Thunderstorm Light Rain
8:15 AM 60.8 °F 57.2 °F 88% 30.14 in 5.0 mi SSE 20.7 mph - 0.01 in Rain Light Rain
8:53 AM 62.1 °F 59.0 °F 90% 30.10 in 10.0 mi SE 18.4 mph 24.2 mph 0.02 in Rain Light Rain
9:53 AM 64.0 °F 59.0 °F 84% 30.11 in 10.0 mi SE 13.8 mph 21.9 mph 0.00 in   Overcast
10:23 AM 64.4 °F 59.0 °F 83% 30.12 in 10.0 mi SE 17.3 mph 21.9 mph N/A   Overcast
10:53 AM 66.0 °F 57.9 °F 75% 30.10 in 10.0 mi SE 15.0 mph 21.9 mph N/A   Overcast
11:53 AM 66.9 °F 57.0 °F 70% 30.09 in 10.0 mi SE 12.7 mph 21.9 mph N/A   Overcast
12:53 PM 69.1 °F 59.0 °F 70% 30.06 in 10.0 mi SSE 12.7 mph 20.7 mph N/A   Overcast
1:53 PM 73.0 °F 62.1 °F 68% 30.03 in 10.0 mi South 16.1 mph 21.9 mph N/A   Overcast
2:53 PM 77.0 °F 64.0 °F 64% 30.01 in 10.0 mi South 13.8 mph 23.0 mph N/A   Scattered Clouds
3:19 PM 77.0 °F 64.4 °F 65% 30.04 in 10.0 mi SSE 11.5 mph - N/A   Mostly Cloudy
3:53 PM 78.1 °F 66.0 °F 66% 29.99 in 10.0 mi South 10.4 mph - N/A   Mostly Cloudy
4:53 PM 75.9 °F 66.0 °F 71% 29.98 in 10.0 mi SE 6.9 mph - N/A   Overcast
5:53 PM 77.0 °F 66.9 °F 71% 29.96 in 10.0 mi South 9.2 mph - N/A   Overcast
6:38 PM 75.2 °F 68.0 °F 78% 29.96 in 10.0 mi SE 11.5 mph - N/A   Overcast
6:53 PM 77.0 °F 68.0 °F 74% 29.93 in 10.0 mi SE 11.5 mph - N/A   Overcast
7:53 PM 77.0 °F 68.0 °F 74% 29.92 in 10.0 mi SSE 12.7 mph 18.4 mph N/A   Mostly Cloudy
8:53 PM 73.9 °F 66.9 °F 79% 29.92 in 10.0 mi South 10.4 mph - N/A   Scattered Clouds
9:53 PM 73.0 °F 66.9 °F 81% 29.93 in 10.0 mi South 10.4 mph - N/A   Mostly Cloudy
10:53 PM 73.0 °F 66.9 °F 81% 29.93 in 10.0 mi South 12.7 mph - N/A   Overcast
11:53 PM 71.1 °F 66.9 °F 87% 29.95 in 10.0 mi ESE 4.6 mph - N/A   Mostly Cloudy